FW2156 Weather Reports


Display with metric or nautical units.
time (UTC)temp
F
wind
direction
speed
MPH
gust
MPH
rain 1hr
in
rain 24hr
in
rain mn
in
humidity
%
barometer
mb
20260503184112 68 267 6.0 9.0 0.00 0.00 0.00 32 1008.8
20260503183611 68 296 5.0 6.0 0.00 0.00 0.00 32 1008.8
20260503183114 68 264 5.0 6.0 0.00 0.00 0.00 32 1008.8
20260503182613 68 281 4.0 5.0 0.00 0.00 0.00 32 1008.8
20260503182111 68 267 5.0 9.0 0.00 0.00 0.00 34 1009.1
20260503181611 68 329 2.0 3.0 0.00 0.00 0.00 34 1008.8
20260503181113 68 257 4.0 7.0 0.00 0.00 0.00 34 1009.1
20260503180617 68 258 4.0 6.0 0.00 0.00 0.00 34 1009.1
20260503180110 68 310 4.0 6.0 0.00 0.00 0.00 34 1009.1
20260503175612 67 21 3.0 6.0 0.00 0.00 0.00 33 1009.1
20260503175113 67 290 4.0 6.0 0.00 0.00 0.00 34 1009.1
20260503174614 67 18 3.0 5.0 0.00 0.00 0.00 35 1009.5
20260503174110 67 293 5.0 6.0 0.00 0.00 0.00 35 1009.5
20260503173610 67 234 9.0 14.0 0.00 0.00 0.00 35 1009.5
20260503173113 67 162 3.0 5.0 0.00 0.00 0.00 36 1009.8
20260503172612 67 322 3.0 5.0 0.00 0.00 0.00 35 1009.8
20260503172113 66 242 3.0 5.0 0.00 0.00 0.00 35 1009.8
20260503171612 66 218 4.0 6.0 0.00 0.00 0.00 35 1009.8
20260503171137 66 289 6.0 8.0 0.00 0.00 0.00 36 1009.8
20260503170638 66 260 1.0 2.0 0.00 0.00 0.00 36 1010.2
20260503170141 65 278 3.0 3.0 0.00 0.00 0.00 35 1009.5
20260503150510 54 288 3.0 3.0 0.00 0.00 0.00 47 1010.2
20260503140312 49 268 1.0 1.0 0.00 0.00 0.00 51 1010.5
20260503131334 48 285 0.0 1.0 0.00 0.00 0.00 51 1010.2
20260503130837 48 308 1.0 2.0 0.00 0.00 0.00 51 1010.2
20260503130333 49 246 0.0 1.0 0.00 0.00 0.00 51 1010.2
20260503110330 50 233 0.0 1.0 0.00 0.00 0.00 48 1010.5
20260503090329 52 259 2.0 2.0 0.00 0.00 0.00 45 1010.5
20260503081327 54 280 1.0 2.0 0.00 0.00 0.00 43 1010.5
20260503080828 54 290 3.0 5.0 0.00 0.00 0.00 43 1010.5
20260503080329 54 278 3.0 3.0 0.00 0.00 0.00 42 1010.5
20260503072828 55 294 4.0 5.0 0.00 0.00 0.00 42 1010.8
20260503072325 55 322 3.0 5.0 0.00 0.00 0.00 42 1010.5
20260503071828 55 286 3.0 5.0 0.00 0.00 0.00 42 1010.5
20260503071325 55 338 3.0 6.0 0.00 0.00 0.00 41 1010.8
20260503070827 55 260 3.0 3.0 0.00 0.00 0.00 42 1010.8
20260503070324 55 239 4.0 7.0 0.00 0.00 0.00 41 1010.8
20260503060325 53 277 2.0 2.0 0.00 0.00 0.00 43 1010.8
20260503054825 53 242 0.0 1.0 0.00 0.00 0.00 45 1010.8
20260503054327 54 235 0.0 0.0 0.00 0.00 0.00 46 1010.8
20260503053827 54 237 0.0 1.0 0.00 0.00 0.00 47 1011.2
20260503053326 54 232 0.0 1.0 0.00 0.00 0.00 47 1011.2
20260503052827 54 224 0.0 1.0 0.00 0.00 0.00 47 1010.8
20260503052353 54 217 0.0 0.0 0.00 0.00 0.00 48 1010.8
20260503051856 54 252 0.0 0.0 0.00 0.00 0.00 49 1011.2
20260503051350 54 206 0.0 0.0 0.00 0.00 0.00 50 1011.2
20260503050855 54 233 0.0 0.0 0.00 0.00 0.00 49 1011.2
20260503050425 54 232 0.0 0.0 0.00 0.00 0.00 49 1010.8
20260503045951 54 232 0.0 0.0 0.00 0.00 0.00 49 1011.2
20260503045452 54 244 0.0 1.0 0.00 0.00 0.00 51 1011.2
20260503044951 55 227 1.0 2.0 0.00 0.00 0.00 56 1010.8
20260503044523 55 196 0.0 0.0 0.00 0.00 0.00 60 1010.8
20260503044026 55 198 0.0 0.0 0.00 0.00 0.00 60 1011.2
20260503043553 56 200 0.0 0.0 0.00 0.00 0.00 64 1010.8
20260503043125 56 199 0.0 0.0 0.00 0.00 0.00 63 1010.8
20260503042625 57 200 0.0 0.0 0.00 0.00 0.00 63 1010.8
20260503042152 57 199 0.0 0.0 0.00 0.00 0.00 62 1011.2
20260503041655 57 199 0.0 0.0 0.00 0.00 0.00 61 1010.8
20260503041226 58 200 0.0 0.0 0.00 0.00 0.00 59 1010.8
20260503040725 58 211 0.0 0.0 0.00 0.00 0.00 59 1010.8
20260503040226 58 205 0.0 0.0 0.00 0.00 0.00 59 1010.8
20260503035725 59 195 0.0 0.0 0.00 0.00 0.00 58 1010.8
20260503035223 59 174 0.0 0.0 0.00 0.00 0.00 58 1010.8
20260503034727 59 250 0.0 1.0 0.00 0.00 0.00 57 1010.5
20260503034226 59 203 0.0 1.0 0.00 0.00 0.00 57 1010.5
20260503033724 60 237 1.0 2.0 0.00 0.00 0.00 56 1010.5
20260503033224 60 278 2.0 3.0 0.00 0.00 0.00 56 1010.5
20260503032724 60 211 0.0 0.0 0.00 0.00 0.00 55 1010.8
20260503032224 61 206 0.0 1.0 0.00 0.00 0.00 54 1010.5
20260503031725 61 292 2.0 2.0 0.00 0.00 0.00 54 1010.5
20260503031224 62 242 0.0 1.0 0.00 0.00 0.00 53 1010.5
20260503030723 62 267 2.0 2.0 0.00 0.00 0.00 52 1010.8
20260503030224 62 299 2.0 2.0 0.00 0.00 0.00 52 1010.5
20260503025726 62 289 1.0 2.0 0.00 0.00 0.00 52 1010.5
20260503025223 63 286 0.0 1.0 0.00 0.00 0.00 51 1010.5
20260503024728 63 287 1.0 2.0 0.00 0.00 0.00 51 1010.5
20260503024223 64 189 1.0 2.0 0.00 0.00 0.00 50 1010.5
20260503023726 64 208 1.0 1.0 0.00 0.00 0.00 50 1010.2
20260503023225 64 262 1.0 1.0 0.00 0.00 0.00 49 1010.2
20260503022726 64 139 1.0 2.0 0.00 0.00 0.00 48 1010.2
20260503022225 65 354 0.0 1.0 0.00 0.00 0.00 47 1010.5
20260503021726 65 221 0.0 0.0 0.00 0.00 0.00 47 1010.5
20260503021229 66 171 0.0 1.0 0.00 0.00 0.00 47 1010.5
20260503020656 67 341 0.0 0.0 0.00 0.00 0.00 47 1010.2
20260503020154 68 26 1.0 2.0 0.00 0.00 0.00 46 1010.5
20260503015653 68 252 1.0 3.0 0.00 0.00 0.00 45 1010.5
20260503015129 69 180 1.0 2.0 0.00 0.00 0.00 44 1010.5
20260503014623 69 216 0.0 1.0 0.00 0.00 0.00 42 1010.5
20260503014125 70 130 0.0 1.0 0.00 0.00 0.00 40 1010.5
20260503013623 70 175 2.0 2.0 0.00 0.00 0.00 39 1010.5
20260503013124 70 134 0.0 1.0 0.00 0.00 0.00 38 1010.5
20260503012626 71 157 1.0 2.0 0.00 0.00 0.00 39 1010.5
20260503012126 71 218 0.0 0.0 0.00 0.00 0.00 39 1010.5
20260503011627 71 264 1.0 2.0 0.00 0.00 0.00 38 1010.5
20260503011054 71 279 1.0 2.0 0.00 0.00 0.00 38 1010.8
20260503010549 71 259 2.0 2.0 0.00 0.00 0.00 37 1010.8
20260503010030 70 231 1.0 1.0 0.00 0.00 0.00 38 1010.8
20260503005529 70 285 1.0 2.0 0.00 0.00 0.00 37 1010.8
20260503005030 70 255 3.0 3.0 0.00 0.00 0.00 37 1011.2
20260503004529 70 196 0.0 0.0 0.00 0.00 0.00 40 1010.8
20260503004029 69 125 0.0 0.0 0.00 0.00 0.00 39 1010.8
20260503003530 69 357 0.0 1.0 0.00 0.00 0.00 39 1010.8
20260503003029 69 200 0.0 1.0 0.00 0.00 0.00 40 1010.8
20260503002530 69 221 0.0 1.0 0.00 0.00 0.00 40 1010.8
20260503002029 69 34 1.0 1.0 0.00 0.00 0.00 40 1011.2
20260503001529 69 123 0.0 1.0 0.00 0.00 0.00 41 1011.2
20260503001028 69 222 1.0 2.0 0.00 0.00 0.00 41 1011.2
20260503000528 69 85 1.0 2.0 0.00 0.00 0.00 41 1011.2
20260503000027 69 248 1.0 2.0 0.00 0.00 0.00 40 1011.2
20260502235528 69 218 0.0 0.0 0.00 0.00 0.00 40 1011.5
20260502235028 69 232 1.0 2.0 0.00 0.00 0.00 41 1011.2
20260502234527 69 263 1.0 2.0 0.00 0.00 0.00 40 1011.2
20260502234027 69 99 2.0 3.0 0.00 0.00 0.00 41 1011.5
20260502233528 69 88 3.0 3.0 0.00 0.00 0.00 40 1011.5
20260502233026 69 163 1.0 2.0 0.00 0.00 0.00 41 1011.5
20260502232527 70 121 2.0 2.0 0.00 0.00 0.00 41 1011.5
20260502232027 70 180 1.0 2.0 0.00 0.00 0.00 40 1011.5
20260502231528 70 174 1.0 2.0 0.00 0.00 0.00 41 1011.9
20260502231027 70 102 3.0 3.0 0.00 0.00 0.00 40 1011.9
20260502230526 70 110 1.0 1.0 0.00 0.00 0.00 40 1011.9
20260502230026 70 195 0.0 1.0 0.00 0.00 0.00 39 1011.9
20260502225525 70 199 3.0 5.0 0.00 0.00 0.00 40 1011.9
20260502225026 70 116 0.0 0.0 0.00 0.00 0.00 40 1011.9
20260502224527 69 283 2.0 3.0 0.00 0.00 0.00 40 1011.9
20260502224029 69 73 0.0 1.0 0.00 0.00 0.00 40 1012.2
20260502223527 69 117 2.0 3.0 0.00 0.00 0.00 42 1012.2
20260502223025 69 151 0.0 1.0 0.00 0.00 0.00 41 1012.5
20260502222528 68 17 0.0 1.0 0.00 0.00 0.00 41 1012.5
20260502222027 68 158 2.0 3.0 0.00 0.00 0.00 41 1012.5
20260502221526 68 284 1.0 1.0 0.00 0.00 0.00 42 1012.5
20260502221026 68 84 3.0 5.0 0.00 0.00 0.00 41 1012.9
20260502220525 68 137 1.0 2.0 0.00 0.00 0.00 43 1012.9
20260502220027 68 268 2.0 2.0 0.00 0.00 0.00 42 1012.9
20260502215524 68 46 2.0 3.0 0.00 0.00 0.00 43 1012.9
20260502215027 68 121 2.0 2.0 0.00 0.00 0.00 42 1012.9
20260502214525 68 233 1.0 1.0 0.00 0.00 0.00 43 1013.2
20260502214025 67 133 4.0 6.0 0.00 0.00 0.00 43 1013.2
20260502213454 67 177 0.0 1.0 0.00 0.00 0.00 42 1012.9
20260502212948 67 116 3.0 5.0 0.00 0.00 0.00 43 1013.2
20260502212441 67 176 4.0 5.0 0.00 0.00 0.00 43 1013.2
20260502211941 67 227 2.0 3.0 0.00 0.00 0.00 42 1012.9
20260502211441 67 157 1.0 2.0 0.00 0.00 0.00 43 1013.5
20260502210937 68 246 0.0 1.0 0.00 0.00 0.00 44 1013.2
20260502210439 68 223 0.0 1.0 0.00 0.00 0.00 43 1013.2
20260502205941 67 231 2.0 3.0 0.00 0.00 0.00 42 1013.5
20260502205438 67 130 0.0 1.0 0.00 0.00 0.00 43 1013.5
20260502204938 67 341 1.0 2.0 0.00 0.00 0.00 42 1013.9
20260502204440 66 193 0.0 1.0 0.00 0.00 0.00 43 1013.5
20260502203940 66 190 1.0 1.0 0.00 0.00 0.00 43 1013.9
20260502203439 65 103 2.0 3.0 0.00 0.00 0.00 43 1013.9
20260502202937 65 170 0.0 0.0 0.00 0.00 0.00 44 1014.2
20260502202439 65 222 2.0 3.0 0.00 0.00 0.00 44 1014.2
20260502201913 64 140 0.0 0.0 0.00 0.00 0.00 45 1014.2
20260502201411 65 133 1.0 1.0 0.00 0.00 0.00 46 1014.2
20260502200911 64 111 1.0 2.0 0.00 0.00 0.00 46 1014.2
20260502200414 64 244 1.0 1.0 0.00 0.00 0.00 45 1014.2
20260502195913 64 136 1.0 1.0 0.00 0.00 0.00 47 1014.2
20260502195414 64 85 2.0 3.0 0.00 0.00 0.00 47 1014.6
20260502194915 64 134 1.0 2.0 0.00 0.00 0.00 44 1014.6
20260502194413 63 211 0.0 1.0 0.00 0.00 0.00 45 1014.6
20260502193915 63 127 2.0 3.0 0.00 0.00 0.00 49 1014.6
20260502193413 63 328 0.0 1.0 0.00 0.00 0.00 45 1014.9
20260502192912 63 215 1.0 2.0 0.00 0.00 0.00 46 1014.9
20260502192412 62 137 1.0 3.0 0.00 0.00 0.00 47 1014.6
20260502191911 63 125 5.0 6.0 0.00 0.00 0.00 48 1014.6
20260502191415 63 80 1.0 2.0 0.00 0.00 0.00 48 1014.9
20260502190914 62 124 1.0 1.0 0.00 0.00 0.00 47 1015.2
20260502190417 62 247 0.0 1.0 0.00 0.00 0.00 47 1015.2
20260502185842 62 123 2.0 2.0 0.00 0.00 0.00 48 1014.9
20260502185340 62 258 2.0 3.0 0.00 0.00 0.00 47 1015.2
20260502184837 62 194 2.0 3.0 0.00 0.00 0.00 48 1015.2
20260502184315 62 174 0.0 1.0 0.00 0.00 0.00 48 1015.2